[[{"header":{"parameterUnit":"m.s-1","parameterCategory":1,"la1":30.2991,"la2":30.254,"lo1":-89.0895,"lo2":-89.0444,"dy":0.0017,"dx":0.0017,"nx":28,"ny":28,"refTime":"2023-03-30T21:00:00:Z","depth":0,"parameterNumber":2,"parameterNumberName":"U-component_of_WINDS"},"data":[0,0,0,0,0,0,0,0,0,0,0,0,0,0,0,0,0,0,0,0,0,0,0,0,0,0,0,0,0,0,0,0,0,0,0,0,0,0,0,0,0,0,0,0,0,0,0,0,0,0,0,0,0,0,0,0,0,0,-4.618,-4.6179,0,-4.6036,-4.6034,-4.6033,-4.5847,-4.5843,-4.584,-4.5838,-4.569,-4.5689,-4.5688,0,0,0,0,0,0,0,0,0,0,0,0,0,-4.6297,-4.6296,-4.618,-4.6178,-4.6177,-4.6036,-4.6034,-4.6032,-4.5847,-4.5843,-4.584,-4.5836,-4.5691,-4.5689,-4.5688,0,0,0,0,0,0,0,0,0,0,0,0,0,-4.6209,-4.6296,-4.6181,-4.6067,-4.6056,-4.6037,-4.6034,-4.6032,-4.5848,-4.5843,-4.5839,-4.5835,-4.5691,-4.5689,-4.5688,-4.5768,0,0,-4.5683,-4.5682,0,0,0,0,0,0,0,0,-4.6215,-4.6205,-4.6086,-4.6075,-4.6062,-4.5955,-4.6021,-4.5943,-4.5849,-4.5927,-4.5838,-4.5832,-4.5782,-4.5772,-4.5755,-4.5761,-4.5755,-4.5682,-4.5681,-4.5681,-4.568,0,0,0,0,0,0,0,-4.6221,-4.621,-4.6123,-4.6084,-4.607,-4.6024,-4.6007,-4.6006,-4.5882,-4.592,-4.5906,-4.5891,-4.5774,-4.5757,-4.575,-4.5753,-4.5683,-4.5681,-4.568,-4.5679,-4.582,-4.5824,0,0,0,0,0,0,-4.6244,-4.6217,-4.6128,-4.6119,-4.6129,-4.6026,-4.6006,-4.5994,-4.5881,-4.5859,-4.5895,-4.5883,-4.5762,-4.5753,-4.5745,-4.5832,-4.5681,-4.5679,-4.5678,-4.5815,-4.5821,-4.5826,0,0,0,0,0,0,-4.6247,-4.6238,-4.6133,-4.6164,-4.6147,-4.6029,-4.6016,-4.5993,-4.5976,-4.5863,-4.584,-4.59,-4.5758,-4.5747,-4.5764,-4.5824,-4.5678,-4.5677,-4.5809,-4.5817,-4.5823,-4.6007,0,0,0,0,0,0,-4.6251,-4.624,-4.6268,-4.6166,-4.6146,-4.6155,-4.602,-4.5994,-4.5973,-4.5956,-4.5861,-4.5841,-4.5754,-4.5768,-4.5763,-4.5819,-4.5676,-4.5803,-4.5813,-4.5821,-4.5995,-4.602,-4.6041,0,0,0,0,0,-4.6256,-4.6325,-4.6271,-4.6261,-4.6179,-4.6159,-4.6148,-4.6046,-4.5979,-4.6007,-4.5935,-4.5844,-4.5819,-4.5771,-4.5764,-4.5821,-4.5799,-4.581,-4.582,-4.5985,-4.6015,-4.604,0,0,0,0,0,0,-4.6437,-4.631,-4.6248,-4.6286,-4.6235,-4.6128,-4.6159,-4.608,-4.6047,-4.6032,-4.5908,-4.5888,-4.5921,-4.5872,-4.5821,-4.5894,-4.5796,-4.5806,-4.5923,-4.5951,-4.5973,-4.5983,-4.5674,0,0,0,0,0,-4.6482,-4.6475,-4.6364,-4.6409,-4.6387,-4.6279,-4.6266,-4.6192,-4.6134,-4.6111,-4.604,-4.5987,-4.5967,-4.5957,-4.5932,-4.5988,-4.5965,-4.6024,-4.6047,-4.6066,-4.6076,-4.6103,-4.6128,-4.5861,-4.5861,-4.586,0,0,-4.6573,-4.6503,-4.6506,-4.6444,-4.6395,-4.6392,-4.6261,-4.6263,-4.6259,-4.6111,-4.6123,-4.607,-4.6003,-4.6041,-4.6054,-4.6001,-4.6145,-4.608,-4.6096,-4.6094,-4.6117,-4.6142,-4.6165,-4.5868,-4.5867,-4.5865,0,0,-4.6737,-4.6684,-4.6716,-4.6671,-4.66,-4.6528,-4.6536,-4.6442,-4.6401,-4.6411,-4.63,-4.6295,-4.6264,-4.6221,-4.6195,-4.6349,-4.6265,-4.6345,-4.6463,-4.6491,-4.6512,-4.653,-4.6585,-4.6606,-4.6355,-4.6355,-4.6356,0,-4.686,-4.685,-4.6742,-4.6751,-4.6728,-4.6595,-4.6627,-4.6589,-4.6514,-4.6501,-4.6444,-4.6403,-4.6349,-4.6375,-4.6413,-4.6397,-4.6403,-4.6353,-4.6518,-4.6535,-4.655,-4.6601,-4.6622,-4.6365,-4.6364,-4.6363,-4.6362,0,-4.7004,-4.7,-4.7034,-4.6966,-4.6946,-4.6967,-4.6863,-4.6857,-4.6787,-4.6722,-4.6736,-4.6667,-4.6626,-4.6628,-4.6558,-4.6645,-4.6615,-4.6541,-4.6439,-4.6587,-4.6633,-4.6652,-4.638,-4.6376,-4.6373,-4.6371,0,0,-4.7274,-4.7149,-4.7163,-4.7132,-4.7046,-4.704,-4.7057,-4.7018,-4.7016,-4.697,-4.698,-4.6959,-4.689,-4.6861,-4.6786,-4.6812,-4.6939,-4.6733,-4.673,-4.6773,-4.7031,-4.7087,-4.7111,-4.6884,-4.6887,-4.689,-4.7036,0,-4.7422,-4.7441,-4.7346,-4.7391,-4.7386,-4.7263,-4.7277,-4.7227,-4.7168,-4.7156,-4.709,-4.7077,-4.6986,-4.6968,-4.6988,-4.6919,-4.6989,-4.6908,-4.6892,-4.6893,-4.6911,-4.7135,-4.7193,-4.7335,-4.7054,-4.7056,-4.7059,0,-4.7595,-4.756,-4.7605,-4.7519,-4.7513,-4.7527,-4.7486,-4.7476,-4.7417,-4.7373,-4.7343,-4.7258,-4.7269,-4.7175,-4.7189,-4.7136,-4.7125,-4.7091,-4.7094,-4.7087,-4.6983,-4.7133,-4.7377,-4.7398,-4.7086,-4.7084,-4.7082,0,-4.7787,-4.7751,-4.7773,-4.775,-4.7651,-4.7664,-4.7624,-4.7561,-4.7545,-4.7509,-4.7497,-4.7464,-4.7446,-4.7422,-4.7331,-4.7271,-4.7357,-4.7254,-4.732,-4.7322,-4.7341,-4.734,-4.7586,-4.7337,-4.7337,-4.7337,-4.7336,0,-4.796,-4.7992,-4.7859,-4.7872,-4.7905,-4.7798,-4.7834,-4.7781,-4.7727,-4.7729,-4.7621,-4.7625,-4.7506,-4.7497,-4.7427,-4.7449,-4.7442,-4.7407,-4.7387,-4.7415,-4.742,-4.7404,-4.7391,-4.7342,-4.7341,-4.734,-4.7339,0,-4.8179,-4.8091,-4.8107,-4.8013,-4.799,-4.8019,-4.7938,-4.7948,-4.7884,-4.7888,-4.7883,-4.7782,-4.7767,-4.7675,-4.7638,-4.7591,-4.7639,-4.7601,-4.7659,-4.7645,-4.7716,-4.771,-4.7958,-4.7985,-4.7722,-4.7725,-4.7727,0,-4.8294,-4.8316,-4.8225,-4.8219,-4.8184,-4.8175,-4.8159,-4.8055,-4.8043,-4.798,-4.7998,-4.7974,-4.7949,-4.7932,-4.7855,-4.7828,-4.7787,-4.7876,-4.7782,-4.781,-4.7787,-4.7787,-4.7788,-4.7896,-4.7899,-4.7902,-4.7904,0,-4.8508,-4.8464,-4.8444,-4.8411,-4.8395,-4.8364,-4.8325,-4.8327,-4.8213,-4.8205,-4.8188,-4.817,-4.8134,-4.8112,-4.8072,-4.803,-4.7949,-4.7935,-4.7948,-4.7976,-4.8009,-4.7991,-4.7712,-4.7929,-4.7926,-4.7925,-4.7923,-4.7922,-4.8677,-4.8691,-4.8631,-4.8613,-4.8575,-4.8542,-4.8547,-4.8485,-4.8469,-4.8432,-4.8373,-4.8365,-4.8309,-4.8247,-4.8213,-4.8206,-4.8159,-4.8179,-4.8183,-4.8189,-4.8204,-4.8012,-4.8199,-4.8198,-4.8197,-4.8197,-4.8196,0,-4.8884,-4.884,-4.8826,-4.8777,-4.8764,-4.869,-4.8645,-4.8639,-4.8634,-4.8589,-4.8568,-4.8551,-4.853,-4.8455,-4.8426,-4.8436,-4.8398,-4.8432,-4.8429,-4.8421,-4.8248,-4.8239,-4.8463,-4.8463,-4.8463,-4.8463,-4.8463,-4.8463,-4.899,-4.9011,-4.8961,-4.8963,-4.8918,-4.891,-4.8891,-4.8862,-4.8825,-4.8811,-4.8794,-4.8745,-4.8688,-4.8655,-4.8634,-4.8612,-4.8606,-4.8653,-4.8619,-4.8459,-4.8433,-4.8408,-4.8399,-4.8653,-4.8653,-4.8792,-4.8793,-4.8794]},{"header":{"parameterUnit":"m.s-1","parameterCategory":1,"la1":30.2991,"la2":30.254,"lo1":-89.0895,"lo2":-89.0444,"dy":0.0017,"dx":0.0017,"nx":28,"ny":28,"refTime":"2023-03-30T21:00:00:Z","depth":0,"parameterNumber":3,"parameterNumberName":"V-component_of_WINDS"},"data":[0,0,0,0,0,0,0,0,0,0,0,0,0,0,0,0,0,0,0,0,0,0,0,0,0,0,0,0,0,0,0,0,0,0,0,0,0,0,0,0,0,0,0,0,0,0,0,0,0,0,0,0,0,0,0,0,0,0,1.9056,1.9055,0,1.9002,1.9001,1.9001,1.9017,1.9018,1.9019,1.902,1.8961,1.8958,1.8955,0,0,0,0,0,0,0,0,0,0,0,0,0,1.917,1.9167,1.9056,1.9055,1.9054,1.9002,1.9001,1.9,1.9017,1.9018,1.9019,1.9021,1.8962,1.8958,1.8955,0,0,0,0,0,0,0,0,0,0,0,0,0,1.9118,1.9167,1.9056,1.9056,1.9056,1.9002,1.9001,1.9,1.9016,1.9018,1.902,1.9021,1.8963,1.8959,1.8955,1.8896,0,0,1.8943,1.8941,0,0,0,0,0,0,0,0,1.9121,1.9114,1.9057,1.9056,1.9055,1.9018,1.902,1.8965,1.9016,1.9031,1.902,1.9022,1.8978,1.8973,1.8959,1.8893,1.8891,1.8942,1.894,1.8938,1.8937,0,0,0,0,0,0,0,1.9125,1.9116,1.9034,1.9056,1.9055,1.9058,1.9053,1.9009,1.8995,1.903,1.9031,1.9025,1.8978,1.8963,1.8958,1.889,1.8942,1.8939,1.8936,1.8935,1.8774,1.8772,0,0,0,0,0,0,1.9129,1.9119,1.9036,1.9033,1.9093,1.9055,1.9049,1.9028,1.8996,1.8993,1.9023,1.9026,1.8969,1.8962,1.8956,1.8884,1.8938,1.8935,1.8932,1.8776,1.8774,1.8772,0,0,0,0,0,0,1.9132,1.9122,1.9038,1.9076,1.9066,1.9051,1.9028,1.9026,1.9011,1.8991,1.8988,1.901,1.897,1.8961,1.8911,1.8883,1.8933,1.8929,1.8778,1.8775,1.8773,1.8742,0,0,0,0,0,0,1.9135,1.9122,1.91,1.9076,1.9064,1.8995,1.9026,1.9024,1.9005,1.9007,1.8978,1.8975,1.897,1.8917,1.8907,1.8878,1.8926,1.8781,1.8777,1.8774,1.8745,1.8738,1.8732,0,0,0,0,0,1.9139,1.9093,1.9099,1.9089,1.9036,1.8994,1.8987,1.8983,1.9002,1.898,1.8967,1.8976,1.8888,1.8912,1.8901,1.887,1.8782,1.8778,1.8774,1.8748,1.874,1.8733,0,0,0,0,0,0,1.9112,1.9089,1.9096,1.9041,1.902,1.8996,1.8968,1.8975,1.8946,1.8949,1.8946,1.8939,1.8887,1.8874,1.8901,1.8812,1.8838,1.8831,1.8822,1.8814,1.8807,1.8811,1.8923,0,0,0,0,0,1.9101,1.9069,1.905,1.9004,1.8993,1.8982,1.8963,1.8963,1.894,1.893,1.8914,1.889,1.8857,1.8835,1.8804,1.8745,1.8738,1.8718,1.8712,1.8707,1.87,1.8667,1.8658,1.8758,1.8758,1.8758,0,0,1.9075,1.9059,1.9038,1.8998,1.8981,1.8947,1.8974,1.8937,1.8912,1.8924,1.8876,1.8864,1.8837,1.8782,1.8757,1.8769,1.8672,1.8701,1.8697,1.8693,1.8662,1.8653,1.8644,1.8755,1.8755,1.8756,0,0,1.9011,1.8996,1.8955,1.8938,1.8913,1.8907,1.8897,1.8874,1.8867,1.8819,1.8828,1.8797,1.8741,1.8721,1.8704,1.8635,1.8642,1.8625,1.859,1.8558,1.855,1.8543,1.8517,1.8508,1.8619,1.8619,1.8619,0,1.8981,1.8932,1.8933,1.8896,1.8877,1.889,1.8848,1.8831,1.8796,1.8783,1.8798,1.8728,1.8711,1.8651,1.8635,1.8621,1.8609,1.8627,1.8552,1.8545,1.8538,1.8513,1.8504,1.8617,1.8617,1.8617,1.8618,0,1.8897,1.8863,1.8833,1.8801,1.8779,1.874,1.8734,1.8712,1.8715,1.8707,1.8658,1.8639,1.8603,1.859,1.8591,1.8531,1.8539,1.8553,1.8578,1.8527,1.8503,1.8494,1.8614,1.8615,1.8615,1.8616,0,0,1.8811,1.8782,1.8771,1.8757,1.8731,1.8704,1.8666,1.8634,1.8614,1.8591,1.8557,1.8511,1.8524,1.8504,1.8504,1.8477,1.8422,1.8494,1.8493,1.848,1.8353,1.8342,1.8331,1.8428,1.8426,1.8425,1.8355,0,1.8743,1.8677,1.8677,1.8615,1.8583,1.8596,1.8562,1.8543,1.8535,1.8506,1.8497,1.8463,1.8484,1.8472,1.8446,1.8434,1.8396,1.844,1.8395,1.8393,1.8399,1.8319,1.8306,1.8241,1.8346,1.8345,1.8344,0,1.8655,1.863,1.8565,1.8545,1.8532,1.8502,1.8472,1.8445,1.8423,1.842,1.8399,1.8404,1.8364,1.8393,1.8337,1.8367,1.8349,1.8341,1.8338,1.8331,1.8363,1.8308,1.822,1.821,1.8329,1.8331,1.8332,0,1.8597,1.8548,1.8503,1.849,1.8466,1.8445,1.8434,1.8414,1.8395,1.8369,1.8356,1.8326,1.8309,1.8285,1.8281,1.8302,1.8224,1.8253,1.8219,1.8219,1.8199,1.82,1.8105,1.8192,1.8192,1.8192,1.8192,0,1.852,1.8479,1.8477,1.8448,1.8403,1.8405,1.836,1.8351,1.8333,1.8303,1.8312,1.8283,1.8281,1.8251,1.8248,1.8201,1.8194,1.8189,1.8188,1.8187,1.8187,1.8173,1.8176,1.8189,1.819,1.819,1.8191,0,1.8447,1.8443,1.8395,1.8377,1.8372,1.8339,1.8324,1.8296,1.8291,1.8253,1.8244,1.8234,1.8199,1.8194,1.8153,1.8151,1.8095,1.81,1.8103,1.8103,1.8068,1.807,1.7959,1.7943,1.8042,1.8041,1.804,0,1.8397,1.8366,1.8346,1.8327,1.8315,1.8285,1.8266,1.8267,1.8246,1.822,1.8196,1.8163,1.8136,1.808,1.8069,1.8038,1.8041,1.8004,1.8036,1.8036,1.8038,1.8039,1.8036,1.7997,1.7996,1.7995,1.7994,0,1.8308,1.8308,1.8281,1.8254,1.8231,1.8209,1.8189,1.8173,1.8171,1.8148,1.8113,1.8093,1.8053,1.8019,1.7989,1.7976,1.7984,1.7985,1.7975,1.7972,1.7974,1.7971,1.8084,1.7986,1.7987,1.7988,1.7988,1.7988,1.8243,1.8217,1.8199,1.8168,1.8154,1.8134,1.8108,1.8101,1.8072,1.804,1.8043,1.8005,1.7985,1.7945,1.7931,1.79,1.7912,1.7898,1.7894,1.789,1.7886,1.7981,1.7895,1.7895,1.7895,1.7895,1.7896,0,1.8154,1.8143,1.8116,1.8087,1.8064,1.8076,1.8055,1.8033,1.8,1.7982,1.7956,1.7917,1.7885,1.7872,1.7841,1.7819,1.7822,1.7811,1.7811,1.7808,1.7878,1.7889,1.7809,1.7809,1.7809,1.7809,1.7809,1.7809,1.8104,1.8059,1.8058,1.8006,1.7996,1.796,1.7947,1.7929,1.7914,1.787,1.7845,1.7838,1.7821,1.7789,1.776,1.7757,1.7744,1.7731,1.7729,1.7794,1.7803,1.7811,1.7821,1.7729,1.7728,1.7662,1.7661,1.766]}]]